Air Resources Laboratory banner image
Air Resources Laboratory web site National Oceanic and Atmospheric Administration (NOAA)

md zone


GAZ044-118-TXZ119-213-NCZ071-DCZ001-MDZ014-506-PAZ021-071-NJZ106-
NYZ176-178-MAZ106-OHZ011-021-055-MIZ076-KYZ091-ILZ014-INZ047-
MNZ060-ONZ431-170300-

...Gateway Observations for Savannah International...

CITY           SKY/WX    TMP DP  RH WIND       PRES   REMARKS
Savannah Arpt  TSTM      74  73  97 SE7       30.05S FOG
Atlanta        LGT RAIN  76  71  85 W5        30.04R
Charlotte      MOCLDY    77  73  87 CALM      30.02S
Dallas DFW     PTCLDY    93  62  35 E7        29.93R HX  93
Houston Bush   MOCLDY    89  75  63 S8        29.99R HX  99
Wash National  MOCLDY    83  69  62 S6        29.93S
Wash Dulles    CLOUDY    77  70  79 S8        29.93S
Baltimore      FAIR      76  75  97 CALM      29.93R
Philadelphia   FAIR      85  69  58 S12G22    29.92R
Newark         MOCLDY    85  72  65 S9        29.90R HX  91
Laguardia      FAIR      83  71  67 S8        29.91R
J F K          FAIR      76  74  93 S14       29.93R
Boston         FAIR      71  67  87 S3        29.94R
Pittsburg      MOCLDY    78  71  79 SW8       29.90F
Akron          FAIR      76  72  87 S6        29.92R
Cleveland      FAIR      74  71  91 S6        29.88F
Cincinnati     FAIR      78  73  84 SW6       29.93R
Columbus       FAIR      74  71  91 CALM      29.91R
Detroit        MOCLDY    78  68  71 NW6       29.88R
Chicago O'Hare FAIR      79  56  45 N10       29.95R
Minneapolis    FAIR      78  58  49 NW8       29.99S
Indianapolis   MOCLDY    77  72  84 VRB3      29.94R
Toronto Canada MOCLDY    72  68  88 SW10      29.80S




FEUS71 KLWX 162332 EOLLWX Baltimore and Washington DC Enhanced Metro Forecast/Outlook National Weather Service Baltimore MD/Washington DC 732 PM EDT Mon Jul 16 2018 DCZ001-MDZ004-013-016-503-504-VAZ052>054-506-170300- Washington DC Greater Metropolitan Area Forecast .TONIGHT...Partly cloudy. A chance of showers and thunderstorms, mainly this evening. Lows in the mid 70s. South winds 5 to 10 mph. Chance of rain 40 percent. .TUESDAY...Partly sunny with a chance of showers with a slight chance of thunderstorms in the morning, then showers likely with a chance of thunderstorms in the afternoon. Highs in the upper 80s. Southwest winds 5 to 10 mph, becoming west in the afternoon. Chance of rain 70 percent. .TUESDAY NIGHT...Mostly cloudy with showers likely with a chance of thunderstorms in the evening, then partly cloudy with a slight chance of showers after midnight. Lows in the upper 60s. Northwest winds 5 to 10 mph. Chance of rain 70 percent. .WEDNESDAY...Sunny. Highs in the mid 80s. Northwest winds 5 to 10 mph. .WEDNESDAY NIGHT...Mostly clear. Lows in the lower 60s. North winds around 5 mph. .THURSDAY...Sunny. Highs in the mid 80s. .THURSDAY NIGHT...Mostly clear. Lows in the mid 60s. .FRIDAY...Mostly sunny. Highs in the mid 80s. .FRIDAY NIGHT...Partly cloudy. Lows in the upper 60s. .SATURDAY...Partly sunny with a chance of showers and thunderstorms. Highs in the mid 80s. Chance of rain 50 percent. .SATURDAY NIGHT...Mostly cloudy with a chance of showers and thunderstorms. Lows in the upper 60s. Chance of rain 50 percent. .SUNDAY...Showers likely. Highs in the mid 80s. Chance of rain 60 percent. .SUNDAY NIGHT...Mostly cloudy with a chance of showers. Lows in the upper 60s. Chance of rain 40 percent. .MONDAY...Mostly cloudy with a chance of showers and thunderstorms. Highs in the mid 80s. Chance of rain 50 percent. $$ MDZ005-011-014-505>508-170300- Baltimore Greater Metropolitan Area Forecast .TONIGHT...Partly cloudy. A chance of showers and thunderstorms, mainly this evening. Lows in the mid 70s. South winds 5 to 10 mph. Chance of rain 50 percent. .TUESDAY...Partly sunny with a chance of showers with a slight chance of thunderstorms in the morning, then showers likely with a chance of thunderstorms in the afternoon. Highs in the mid 80s. Southwest winds 5 to 10 mph. Chance of rain 70 percent. .TUESDAY NIGHT...Mostly cloudy with showers likely with a chance of thunderstorms in the evening, then partly cloudy with a slight chance of showers after midnight. Lows in the upper 60s. Northwest winds 5 to 10 mph. Chance of rain 70 percent. .WEDNESDAY...Sunny. Highs in the mid 80s. North winds 5 to 10 mph. .WEDNESDAY NIGHT...Mostly clear. Lows in the lower 60s. North winds 5 to 10 mph. .THURSDAY...Sunny. Highs in the lower 80s. .THURSDAY NIGHT...Clear. Lows in the mid 60s. .FRIDAY...Sunny. Highs in the mid 80s. .FRIDAY NIGHT...Partly cloudy. Lows in the upper 60s. .SATURDAY...Partly sunny with a chance of showers and thunderstorms. Highs in the lower 80s. Chance of rain 50 percent. .SATURDAY NIGHT...Mostly cloudy with a chance of showers and thunderstorms. Lows in the upper 60s. Chance of rain 50 percent. .SUNDAY...Showers likely. Highs in the lower 80s. Chance of rain 60 percent. .SUNDAY NIGHT...Mostly cloudy with a chance of showers. Lows in the upper 60s. Chance of rain 40 percent. .MONDAY...Mostly cloudy with a chance of showers and thunderstorms. Highs in the mid 80s. Chance of rain 50 percent. $$